sat.trackr.live / text

‹ back to catalog

PRSC-E03

NORAD 68835 · 2026-092A

PAYLOAD ACTIVE UNKNOWN

§ Identity

Operator
Country
PAKI
Launch date
2026-04-25
Launch site
TAISC
Launch vehicle
Mass (kg)
RCS (m²)

Purposes: earth_obs

External: N2YO · Heavens-Above · Gunter

§ Orbital elements

Epoch: 2026-09-20T03:32:31.204896Z

Period
95.55 min
Inclination
38.0006°
Eccentricity
0.0003070
Mean motion
15.07068260 rev/d
Perigee alt
543.0 km
Apogee alt
547.3 km
Semi-major
6,923.3 km
B*
1.1169e-4
RAAN
249.5348°
Arg perigee
43.8611°
Mean anomaly
316.2394°
Rev number
2,228

§ Raw data

PRSC-E031 68835U 26092A   26263.14758339  .00001597  00000+0  11169-3 0  99902 68835  38.0006 249.5348 0003070  43.8611 316.2394 15.07068260 22284

JSON: /api/v1/satellites/68835 · /tle

For live sub-satellite position, see the globe view (requires WebGL).

§ Visibility from observer

Set your observer location to see the next 7 days of passes ≥ 10°. The values pass through the URL so the page stays shareable.

No JS? Fill the form by hand. The geolocation button needs JavaScript.